Simultaneous Nadir Overpasses (SNOs) Predictions

Prediction of SNOs between NOAA-19 and NPP Satellite Orbit:

Table of predicted SNOs for the next 14.0 days since TLE Epoch: 11/29/2019
Index Date (NOAA-19) Time (NOAA-19) Lat,Lon (NOAA-19) SZA (NOAA-19 ) Date (NPP) Time (NPP) Lat,Lon (NPP) SZA (NPP ) Distance(km) Time Diff (sec)
1 12/05/2019 15:46:31 79.72, -93.28 103.74 12/05/2019 15:47:46 79.76, -93.28 103.74 4.44 75
2 12/05/2019 16:37:30 -79.73, 74.16 76.27 12/05/2019 16:38:30 -79.74, 74.21 76.29 1.02 60
3 12/05/2019 17:28:31 79.74,-118.57 103.74 12/05/2019 17:29:15 79.73,-118.41 103.71 3.26 44
4 12/05/2019 18:19:30 -79.75, 48.87 76.26 12/05/2019 18:20:00 -79.74, 48.80 76.27 1.94 30
5 12/05/2019 19:10:31 79.76,-143.85 103.75 12/05/2019 19:10:45 79.73,-143.82 103.72 2.40 14
6 12/05/2019 20:01:31 -79.75, 23.28 76.25 12/05/2019 20:01:30 -79.75, 23.38 76.26 1.91 1
7 12/05/2019 20:52:32 79.75,-169.44 103.76 12/05/2019 20:52:16 79.77,-169.52 103.79 3.00 16
8 12/05/2019 21:43:31 -79.76, -2.00 76.24 12/05/2019 21:43:00 -79.75, -2.03 76.24 1.55 31
9 12/05/2019 22:34:32 79.77, 165.28 103.77 12/05/2019 22:33:45 79.74, 165.35 103.76 2.95 47
10 12/05/2019 23:25:32 -79.76, -27.59 76.23 12/05/2019 23:24:30 -79.76, -27.45 76.22 2.85 62




NCC Satellite Simultaneous Nadir Overpasses (SNOs) Prediction Service
